Location: Sternwarte ZA, Rosenfeld-Brittheim
(48.2889°N, 8.6789°E)
Time: 16:12:23
(UTC+02:00)

Tiangong 2 - Visible Passes

Search period start: 25 May 2017 00:00
Search period end: 04 June 2017 00:00
Orbit: 380 x 389 km, 42.8° (Epoch: 24 May)

Date Brightness Start Highest point End Pass type
(mag) Time Alt. Az. Time Alt. Az. Time Alt. Az.
25 May 2.5 22:11:58 10° SW 22:14:28 21° SSE 22:16:32 12° ESE visible
25 May 3.3 23:47:55 10° WSW 23:48:46 16° SW 23:48:46 16° SW visible
26 May 2.0 22:48:26 10° WSW 22:51:14 29° S 22:52:07 25° SE visible
27 May 2.3 21:49:01 10° SW 21:51:44 26° S 21:54:27 10° ESE visible
27 May 2.3 23:25:16 10° WSW 23:27:28 26° SSW 23:27:28 26° SSW visible
28 May 2.1 22:25:41 10° WSW 22:28:31 30° S 22:30:29 16° SE visible
29 May 3.7 00:02:27 10° WSW 00:02:41 11° WSW 00:02:41 11° WSW visible
29 May 2.4 23:02:38 10° WSW 23:05:15 23° SSW 23:05:37 23° S visible
30 May 2.3 22:02:57 10° WSW 22:05:44 28° S 22:08:29 10° SE visible
30 May 3.6 23:40:13 10° SW 23:40:41 12° SW 23:40:41 12° SW visible
31 May 2.9 22:40:05 10° WSW 22:42:23 18° SSW 22:43:32 16° S visible
02 Jun 3.4 22:17:45 10° WSW 22:19:27 14° SSW 22:21:07 10° S visible
